Regional Weather Roundup
Issued by NWS

Home | Current Version | Previous Version | Text Only | Print | Product List | Glossary On
Versions: 1 2 3 4 5 6 7 8 9 10 11 12 13 14 15 16 17 18 19 20 21 22 23 24 25 26 27 28 29 30 31 32 33 34 35 36 37 38 39 40 41 42 43 44 45 46 47 48
000
ASUS42 KTBW 260210
RWRFL
FLORIDA REGIONAL WEATHER ROUNDUP
NATIONAL WEATHER SERVICE TAMPA BAY RUSKIN FL
900 PM EST THU DEC 25 2014

NOTE: "FAIR" INDICATES FEW OR NO CLOUDS BELOW 12,000 FEET WITH NO
SIGNIFICANT WEATHER AND/OR OBSTRUCTIONS TO VISIBILITY.


FLZ001>010-012>015-112-114-115-260300-
PANHANDLE FLORIDA

CITY           SKY/WX    TMP DP  RH WIND       PRES   REMARKS
PENSACOLA      CLEAR     45  41  86 CALM      30.24S
MILTON NAS     CLEAR     38  36  92 CALM      30.25S
CRESTVIEW      CLEAR     39  37  92 CALM      30.27R
DUKE FIELD     FAIR      40  38  93 CALM      30.25S
VALPARAISO     CLEAR     42  40  91 N2        30.25S
MARY ESTHER    CLEAR     43  39  86 N3        30.24S
PANAMA CITY    FAIR      44  41  89 CALM      30.25S
TYNDALL AFB    CLEAR     45  44  96 NE3       30.27R
APALACHICOLA   CLEAR     47  42  83 CALM      30.26R

STATION/POSITION SKY/WX   TEMP    WIND        PRES    WAVE   SWELL
                          AIR SEA DIR/SP/G            HT/PER HT/PER
                          (F)     (DEG/KT/KT) (MB)    (FT/S) (FT/S)
30.1N   87.6W              56 65  140/  4/  6 1023.9R   2/ 8   2/ 8
29.2N   88.2W              57 73   70/  6/ 10 1023.6S   2/ 8   2/ 8
28.7N   86.0W              58 74   60/  8/ 12 1024.5R   3/ 8   3/ 8
PANAMA CITY BEAC           51 61   40/  3/  4 1024.4R
CAPE SAN BLAS    NOT AVBL
TOWER C                    55     320/  2/  2 1024.6R
28.5N   84.5W              58 71   20/  8/ 10 1024.1S   4/ 7   3/ 7

$$
FLZ011-016>038-118-127-128-134-139-239-260300-
NORTH FLORIDA

CITY           SKY/WX    TMP DP  RH WIND       PRES   REMARKS
MARIANNA       CLEAR     43  42  97 CALM      30.26S
TALLAHASSEE    CLEAR     42  38  85 NW3       30.26R
PERRY          CLEAR     44  42  95 CALM      30.27R
CROSS CITY       N/A     44  42  93 CALM      30.26R
LAKE CITY      FAIR      43  43 100 CALM      30.26R
GAINESVILLE    CLEAR     46  44  93 NW3       30.25R
MAYPORT NAS    CLEAR     47  45  93 CALM      30.26R
JACKSONVILLE   PTCLDY    45  45 100 CALM      30.25S
JAX NAS        CLEAR     52  45  77 SW3       30.26S
JAX CRAIG      CLEAR     47  45  93 CALM      30.26R
JAX CECIL      CLEAR     41  41 100 CALM      30.26S
FERNANDINA BEA FAIR      50  46  87 CALM      30.25R
ST AUGUSTINE   CLEAR     51  46  83 NW3       30.26R

STATION/POSITION SKY/WX   TEMP    WIND        PRES    WAVE   SWELL
                          AIR SEA DIR/SP/G            HT/PER HT/PER
                          (F)     (DEG/KT/KT) (MB)    (FT/S) (FT/S)
SHELL POINT                52     360/  4/  6   N/A
KEATON BEACH               49      50/  2/  4 1024.8R
CEDAR KEY                  55     320/  3/  4 1024.7R
FERNANDINA                 51 62   CALM  /  1 1023.9S
30.7N   81.3W                 61                N/A     1/ 9
MAYPORT                    53 62  280/  1/  2   N/A
31.4N   80.9W              57 58  320/ 12/ 14 1024.1R   1/ 9   2/ 9
ST AUGUSTINE               52     320/  7/  7 1025.0R

$$
FLZ040-043>046-052-053-057-058-063-144-260300-
INTERIOR CENTRAL FLORIDA

CITY           SKY/WX    TMP DP  RH WIND       PRES   REMARKS
OCALA          CLEAR     48  45  87 CALM      30.25R
THE VILLAGES     N/A     52  50  93 CALM      30.15R FOG
LEESBURG       CLEAR     52  50  93 CALM      30.25R
SANFORD        CLEAR     53  49  86 CALM      30.24R
ORLANDO EXEC   CLEAR     57  49  74 N5        30.24R
ORLANDO INTL   PTCLDY    56  51  84 N7        30.24R
KISSIMMEE      CLEAR     55  54  94 CALM      30.24R
WINTER HAVEN   CLEAR     57  49  74 N5        30.25R
LAKELAND       PTCLDY    54  50  87 CALM      30.24R
BARTOW         FAIR      55  50  82 N3        30.25R
OKEECHOBEE     CLOUDY    59  54  82 N5        30.22R

$$
FLZ041-047-054-059-064-141-147-260300-
EAST CENTRAL FLORIDA

CITY           SKY/WX    TMP DP  RH WIND       PRES   REMARKS
DAYTONA BEACH  PTCLDY    52  51  97 CALM      30.25R
DELAND         CLEAR    N/A N/A N/A CALM      30.25S
NEW SMYRNA BEA CLEAR     50  50 100 CALM      30.25R
JFK SPACE CTR  PTCLDY    55  51  88 NW6       30.23R
TITUSVILLE     CLEAR     57  50  77 NW6       30.23R
CAPE CANAVERAL PTCLDY    59  51  76 NW6       30.22R
PATRICK AFB    PTCLDY    61  53  74 N8        30.22R
MELBOURNE      PTCLDY    59  53  80 W3        30.22R
VERO BEACH     PTCLDY    59  54  83 N6        30.20S
FT PIERCE      MOCLDY    62  55  77 N6        30.20R
STUART         CLOUDY    66  55  68 N3        30.19F

STATION/POSITION SKY/WX   TEMP    WIND        PRES    WAVE   SWELL
                          AIR SEA DIR/SP/G            HT/PER HT/PER
                          (F)     (DEG/KT/KT) (MB)    (FT/S) (FT/S)
28.5N   80.2W              65 75  350/  8/ 10 1022.9R
28.9N   78.5W              70 76   10/  6/  8 1022.3R   5/ 7   5/ 7
TRIDENT PIER               58 67  340/  3/  5 1022.9R
28.4N   80.5W                 67                N/A     2/ 7
27.6N   80.2W                 76                N/A     3/ 7

$$
FLZ050-056-061-142-242-148-248-149-249-151-251-155-255-
160-260-260300-
WEST CENTRAL FLORIDA

CITY           SKY/WX    TMP DP  RH WIND       PRES   REMARKS
CRYSTAL RIVER  FAIR      50  46  87 CALM      30.25S
INVERNESS      FAIR      50  48  93 CALM      30.26R FOG
BROOKSVILLE    CLEAR     52  49  89 N3        30.26R
ZEPHYRHILLS    FAIR      50  50 100 CALM      30.26R
CLEARWATER     CLEAR     58  52  80 N5        30.25R
TAMPA INTL     PTCLDY    57  49  74 NW3       30.25R
TAMPA EXEC     CLEAR     54  50  87 CALM      30.25R
PLANT CITY     CLEAR     55  54  94 CALM      30.26R
MACDILL AFB    CLEAR     55  52  90 N5        30.24R
PETER O KNIGHT CLEAR     59  52  77 N3        30.24S
ST PETERSBURG  CLEAR     60  52  74 N7        30.22S
SARASOTA       CLEAR     58  53  84 NE5       30.22R
VENICE         FAIR      61  54  77 NE8       30.22S

STATION/POSITION SKY/WX   TEMP    WIND        PRES    WAVE   SWELL
                          AIR SEA DIR/SP/G            HT/PER HT/PER
                          (F)     (DEG/KT/KT) (MB)    (FT/S) (FT/S)
CEDAR KEY                  55     320/  3/  4 1024.7R
28.5N   84.5W              58 71   20/  8/ 10 1024.1S   4/ 7   3/ 7
27.3N   84.3W                 75                N/A     5/ 7
CLEARWATER BEACH           60 67   10/  8/ 11 1023.8R
MIDDLE TAMPA BAY           62      40/ 10/ 12 1024.1R
VENICE                     61 67   30/  7/  9 1022.9R

$$
FLZ066-069-070-075>078-162-262-165-265-260300-
SOUTHWEST FLORIDA AND KEYS

CITY           SKY/WX    TMP DP  RH WIND       PRES   REMARKS
PUNTA GORDA    PTCLDY    61  54  77 NE8       30.23R
FT MYERS       CLOUDY    67  53  61 NE6       30.18R
SOUTHWEST INTL CLOUDY    66  53  63 NE7       30.19R
NAPLES         MOCLDY    65  54  67 E9        30.16F
MARCO ISLAND   PTCLDY    64  55  72 E6        30.18S
MARATHON       CLOUDY    71  62  73 NE15G22   30.16R
KEY WEST NAS   LGT RAIN  71  58  63 NE16G22   30.17R
KEY WEST INTL  CLOUDY    71  59  65 NE15G23   30.17R

STATION/POSITION SKY/WX   TEMP    WIND        PRES    WAVE   SWELL
                          AIR SEA DIR/SP/G            HT/PER HT/PER
                          (F)     (DEG/KT/KT) (MB)    (FT/S) (FT/S)
VENICE                     61 67   30/  7/  9 1022.9R
NAPLES                     66 76  110/  6/ 11 1021.9F
26.0N   85.6W              69 74   30/ 12/ 16 1022.2R   4/ 7   3/ 7
DRY TORTUGAS               70      60/ 20/ 22 1021.6R
NW FL BAY                  71      40/ 16/ 18 1021.2R
SAND KEY                   71      40/ 21/ 25 1021.3R
SOMBRERO KEY               71      30/ 19/ 21 1021.5R
LONG KEY                   71 75   40/ 19/ 21 1021.9R
MOLASSES REEF              72 77   20/ 16/ 18 1020.9R

$$
FLZ067-068-071>074-168-172>174-260300-
SOUTHEAST FLORIDA

CITY           SKY/WX    TMP DP  RH WIND       PRES   REMARKS
W PALM BEACH   CLOUDY    69  59  70 NW3       30.17S
FT LAUDER-EXEC CLOUDY    69  57  65 VRB3      30.17S
FT LAUDERDALE  CLOUDY    69  59  70 N6        30.17S
POMPANO BEACH  CLOUDY    70  58  65 N6        30.17S
PEMBROKE PINES CLOUDY    70  58  65 N6        30.18F
OPA LOCKA      CLOUDY    70  57  63 N7        30.18S
MIAMI          CLOUDY    70  56  61 VRB3      30.18R
WEST KENDALL   CLOUDY    71  56  58 N9        30.18S
HOMESTEAD      MOCLDY    70  58  64 N9        30.17R

STATION/POSITION SKY/WX   TEMP    WIND        PRES    WAVE   SWELL
                          AIR SEA DIR/SP/G            HT/PER HT/PER
                          (F)     (DEG/KT/KT) (MB)    (FT/S) (FT/S)
PORT EVERGLADES            73      50/  8/ 16 1021.4
VIRGINIA KEY               73 74   20/  5/ 10 1021.9R
LAKE WORTH                 73 76   30/ 11/ 13 1021.4S
SETTLEMENT POINT           71      70/ 14/ 16 1022.4S

$$



USA.gov is the U.S. government's official web portal to all federal, state and local government web resources and services.